Location: *
(55.5817°S, 142.4781°W)
Time: 07:01:28
(UTC+00:00)

SL-08 R/B - Pass Details

Date: 29 April 2025
Orbit: 943 x 1007 km, 83.0° (Epoch: 24 May)

Event Time Altitude Azimuth Distance (km) Brightness Sun altitude
Exits shadow 14:22:17 - 341° (NNW) 3,327 7.1 -21.2°
Reaches altitude 10° 14:23:58 10° 339° (NNW) 2,694 6.6 -21.0°
Maximum altitude 14:30:06 68° 255° (WSW) 1,031 4.4 -20.1°
Drops below altitude 10° 14:36:16 10° 172° (S) 2,704 6.9 -19.2°
Sets 14:38:48 0° 168° (SSE) 3,655 7.7 -18.9°
